• In Kazakhstan
  • List of Countries
  • For 7 days
  • Water Temperature
  • Satellite Maps
  • Weather Map
  • News
  • Weather Widgets
  • user-avatar
    Login

    Hourly Weather Sankt Polten

    Today, 23 October, Monday

    Time Temperature Precipitation Wind Pressure Humidity
    00:00 +7°C° 0.1 mm 4 mps 734 mmHg 87%
    01:00 +8°C° 0 mm 3 mps 734 mmHg 90%
    02:00 +7°C° 0.2 mm 4 mps 734 mmHg 90%
    03:00 +7°C° 0.2 mm 4 mps 733 mmHg 89%
    04:00 +7°C° 0.2 mm 4 mps 733 mmHg 89%
    05:00 +7°C° 0.5 mm 5 mps 733 mmHg 89%
    06:00 +7°C° 0.5 mm 5 mps 733 mmHg 90%
    07:00 +7°C° 0.5 mm 5 mps 734 mmHg 90%
    08:00 +7°C° 0.7 mm 6 mps 734 mmHg 89%
    09:00 +7°C° 0.7 mm 6 mps 734 mmHg 87%
    10:00 +7°C° 0.7 mm 6 mps 734 mmHg 86%
    11:00 +8°C° 0.5 mm 6 mps 734 mmHg 84%
    12:00 +8°C° 0.5 mm 6 mps 734 mmHg 83%
    13:00 +8°C° 0.5 mm 7 mps 734 mmHg 81%
    14:00 +8°C° 0.2 mm 6 mps 735 mmHg 81%
    15:00 +8°C° 0.2 mm 6 mps 735 mmHg 81%
    16:00 +8°C° 0.2 mm 6 mps 735 mmHg 81%
    17:00 +8°C° 0.3 mm 6 mps 736 mmHg 83%
    18:00 +7°C° 0.3 mm 6 mps 736 mmHg 85%
    19:00 +7°C° 0.3 mm 5 mps 737 mmHg 86%
    20:00 +7°C° 0.2 mm 5 mps 737 mmHg 87%
    21:00 +7°C° 0.2 mm 5 mps 738 mmHg 87%
    22:00 +7°C° 0.2 mm 5 mps 738 mmHg 87%
    23:00 +7°C° 0.1 mm 4 mps 738 mmHg 88%

    Tomorrow, 24 October, Tuesday

    Time Temperature Precipitation Wind Pressure Humidity
    00:00 +7°C° 0.1 mm 4 mps 739 mmHg 89%
    01:00 +6°C° 0.1 mm 4 mps 739 mmHg 90%
    02:00 +6°C° 0 mm 4 mps 739 mmHg 91%
    03:00 +6°C° 0 mm 4 mps 739 mmHg 91%
    04:00 +6°C° 0 mm 4 mps 740 mmHg 92%
    05:00 +6°C° 0.1 mm 4 mps 740 mmHg 92%
    06:00 +7°C° 0.1 mm 4 mps 740 mmHg 92%
    07:00 +8°C° 0.1 mm 3 mps 741 mmHg 92%
    08:00 +8°C° 0.1 mm 4 mps 741 mmHg 89%
    09:00 +10°C° 0.1 mm 4 mps 741 mmHg 86%
    10:00 +10°C° 0.1 mm 4 mps 742 mmHg 83%
    11:00 +11°C° 0.1 mm 4 mps 742 mmHg 81%
    12:00 +11°C° 0.1 mm 4 mps 742 mmHg 79%
    13:00 +11°C° 0.1 mm 4 mps 742 mmHg 77%
    14:00 +11°C° 0.1 mm 4 mps 742 mmHg 78%
    15:00 +11°C° 0.1 mm 3 mps 741 mmHg 79%
    16:00 +11°C° 0.1 mm 3 mps 741 mmHg 80%
    17:00 +10°C° 0 mm 2 mps 742 mmHg 83%
    18:00 +10°C° 0 mm 2 mps 742 mmHg 87%
    19:00 +9°C° 0 mm 2 mps 743 mmHg 91%
    20:00 +8°C° 0 mm 2 mps 743 mmHg 92%
    21:00 +8°C° 0 mm 2 mps 743 mmHg 92%
    22:00 +8°C° 0 mm 2 mps 743 mmHg 92%
    23:00 +8°C° 0 mm 2 mps 743 mmHg 93%

    Day after tomorrow, 25 October, Wednesday

    Time Temperature Precipitation Wind Pressure Humidity
    00:00 +8°C° 0 mm 2 mps 743 mmHg 93%
    01:00 +8°C° 0 mm 2 mps 743 mmHg 93%
    02:00 +8°C° 0 mm 2 mps 743 mmHg 93%
    03:00 +8°C° 0 mm 2 mps 743 mmHg 94%
    04:00 +9°C° 0 mm 1 mps 743 mmHg 94%
    05:00 +9°C° 0 mm 1 mps 743 mmHg 93%
    06:00 +9°C° 0 mm 1 mps 743 mmHg 93%
    07:00 +9°C° 0 mm 1 mps 743 mmHg 93%
    08:00 +11°C° 0 mm 1 mps 743 mmHg 86%
    09:00 +13°C° 0 mm 1 mps 743 mmHg 80%
    10:00 +15°C° 0 mm 1 mps 743 mmHg 73%
    11:00 +16°C° 0 mm 1 mps 743 mmHg 70%
    12:00 +18°C° 0 mm 1 mps 743 mmHg 67%
    13:00 +19°C° 0 mm 1 mps 743 mmHg 64%
    14:00 +19°C° 0 mm 1 mps 743 mmHg 68%
    15:00 +18°C° 0 mm 1 mps 743 mmHg 72%
    16:00 +16°C° 0 mm 1 mps 742 mmHg 77%
    17:00 +15°C° 0 mm 1 mps 743 mmHg 80%
    18:00 +14°C° 0 mm 1 mps 743 mmHg 84%
    19:00 +12°C° 0 mm 1 mps 743 mmHg 88%
    20:00 +12°C° 0 mm 1 mps 744 mmHg 87%
    21:00 +12°C° 0 mm 1 mps 744 mmHg 87%
    22:00 +12°C° 0 mm 1 mps 744 mmHg 86%
    23:00 +12°C° 0 mm 1 mps 744 mmHg 86%

    26 October, Thursday

    Time Temperature Precipitation Wind Pressure Humidity
    00:00 +12°C° 0 mm 1 mps 744 mmHg 86%
    01:00 +12°C° 0 mm 1 mps 744 mmHg 85%
    02:00 +11°C° 0 mm 1 mps 744 mmHg 86%
    03:00 +11°C° 0 mm 1 mps 744 mmHg 86%
    04:00 +11°C° 0 mm 1 mps 744 mmHg 86%
    05:00 +11°C° 0 mm 1 mps 744 mmHg 86%
    06:00 +11°C° 0 mm 1 mps 744 mmHg 86%
    07:00 +11°C° 0 mm 1 mps 744 mmHg 86%
    08:00 +13°C° 0 mm 1 mps 744 mmHg 78%
    09:00 +16°C° 0 mm 1 mps 744 mmHg 70%
    10:00 +19°C° 0 mm 1 mps 744 mmHg 63%
    11:00 +20°C° 0 mm 1 mps 743 mmHg 60%
    12:00 +21°C° 0 mm 1 mps 743 mmHg 57%
    13:00 +22°C° 0 mm 1 mps 743 mmHg 54%
    14:00 +21°C° 0 mm 1 mps 742 mmHg 59%
    15:00 +20°C° 0 mm 1 mps 742 mmHg 65%
    16:00 +19°C° 0 mm 1 mps 741 mmHg 70%
    17:00 +17°C° 0 mm 2 mps 741 mmHg 74%
    18:00 +15°C° 0 mm 2 mps 741 mmHg 77%
    19:00 +14°C° 0 mm 2 mps 741 mmHg 80%
    20:00 +14°C° 0 mm 2 mps 741 mmHg 81%
    21:00 +14°C° 0 mm 2 mps 741 mmHg 81%
    22:00 +13°C° 0 mm 2 mps 741 mmHg 81%
    23:00 +13°C° 0 mm 2 mps 741 mmHg 81%

    27 October, Friday

    Time Temperature Precipitation Wind Pressure Humidity
    00:00 +12°C° 0 mm 3 mps 741 mmHg 81%
    01:00 +12°C° 0 mm 3 mps 741 mmHg 81%
    02:00 +12°C° 0 mm 3 mps 740 mmHg 80%
    03:00 +12°C° 0 mm 3 mps 740 mmHg 80%
    04:00 +12°C° 0 mm 3 mps 739 mmHg 79%
    05:00 +12°C° 0 mm 3 mps 739 mmHg 80%
    06:00 +12°C° 0 mm 3 mps 739 mmHg 80%
    07:00 +12°C° 0 mm 3 mps 739 mmHg 80%
    08:00 +13°C° 0 mm 4 mps 738 mmHg 77%
    09:00 +14°C° 0 mm 4 mps 738 mmHg 73%
    10:00 +15°C° 0 mm 5 mps 737 mmHg 70%
    11:00 +15°C° 0.1 mm 5 mps 737 mmHg 70%
    12:00 +15°C° 0.1 mm 6 mps 736 mmHg 71%
    13:00 +15°C° 0.1 mm 6 mps 736 mmHg 71%
    14:00 +14°C° 1 mm 6 mps 736 mmHg 76%
    15:00 +13°C° 1 mm 6 mps 736 mmHg 82%
    16:00 +10°C° 1 mm 5 mps 736 mmHg 87%
    17:00 +10°C° 0.4 mm 5 mps 737 mmHg 87%
    18:00 +9°C° 0.4 mm 5 mps 738 mmHg 86%
    19:00 +8°C° 0.4 mm 5 mps 738 mmHg 86%
    20:00 +8°C° 0.1 mm 5 mps 738 mmHg 86%
    21:00 +8°C° 0.1 mm 5 mps 739 mmHg 86%
    22:00 +8°C° 0.1 mm 6 mps 739 mmHg 87%
    23:00 +8°C° 0.1 mm 6 mps 739 mmHg 86%

    28 October, Saturday

    Time Temperature Precipitation Wind Pressure Humidity
    00:00 +8°C° 0.1 mm 6 mps 739 mmHg 86%
    01:00 +7°C° 0.1 mm 6 mps 738 mmHg 85%
    02:00 +7°C° 0.1 mm 6 mps 738 mmHg 85%
    03:00 +7°C° 0.1 mm 6 mps 738 mmHg 85%
    04:00 +5°C° 0.1 mm 6 mps 738 mmHg 85%
    05:00 +5°C° 0 mm 6 mps 738 mmHg 84%
    06:00 +5°C° 0 mm 6 mps 738 mmHg 84%
    07:00 +5°C° 0 mm 6 mps 738 mmHg 84%
    08:00 +7°C° 0.1 mm 6 mps 738 mmHg 82%
    09:00 +7°C° 0.1 mm 6 mps 737 mmHg 79%
    10:00 +8°C° 0.1 mm 7 mps 737 mmHg 77%
    11:00 +8°C° 0.3 mm 7 mps 736 mmHg 77%
    12:00 +7°C° 0.3 mm 8 mps 735 mmHg 77%
    13:00 +7°C° 0.3 mm 8 mps 735 mmHg 77%
    14:00 +7°C° 0.5 mm 8 mps 734 mmHg 77%
    15:00 +7°C° 0.5 mm 9 mps 734 mmHg 78%
    16:00 +6°C° 0.5 mm 9 mps 733 mmHg 79%
    17:00 +6°C° 0.5 mm 9 mps 733 mmHg 79%
    18:00 +6°C° 0.5 mm 10 mps 733 mmHg 80%
    19:00 +6°C° 0.5 mm 10 mps 733 mmHg 80%
    20:00 +6°C° 0.5 mm 10 mps 733 mmHg 81%
    21:00 +7°C° 0.5 mm 10 mps 733 mmHg 81%
    22:00 +7°C° 0.5 mm 10 mps 733 mmHg 81%
    23:00 +7°C° 0.6 mm 10 mps 733 mmHg 82%

    29 October, Sunday

    Time Temperature Precipitation Wind Pressure Humidity
    00:00 +7°C° 0.6 mm 9 mps 733 mmHg 82%
    01:00 +7°C° 0.6 mm 9 mps 733 mmHg 82%
    02:00 +7°C° 0.8 mm 9 mps 733 mmHg 82%
    03:00 +7°C° 0.8 mm 9 mps 733 mmHg 82%
    04:00 +6°C° 0.8 mm 9 mps 734 mmHg 82%
    05:00 +6°C° 0.4 mm 8 mps 734 mmHg 82%
    06:00 +6°C° 0.4 mm 8 mps 735 mmHg 82%
    07:00 +6°C° 0.4 mm 8 mps 735 mmHg 82%
    08:00 +6°C° 0.1 mm 8 mps 736 mmHg 79%
    09:00 +6°C° 0.1 mm 8 mps 736 mmHg 77%
    10:00 +7°C° 0.1 mm 8 mps 737 mmHg 74%
    11:00 +7°C° 0.1 mm 8 mps 737 mmHg 72%
    12:00 +7°C° 0.1 mm 8 mps 737 mmHg 71%
    13:00 +7°C° 0.1 mm 8 mps 737 mmHg 69%
    14:00 +8°C° 0.1 mm 7 mps 737 mmHg 70%
    15:00 +8°C° 0.1 mm 6 mps 737 mmHg 71%
    16:00 +8°C° 0.1 mm 6 mps 737 mmHg 71%
    17:00 +7°C° 0 mm 5 mps 737 mmHg 74%
    18:00 +7°C° 0 mm 5 mps 738 mmHg 76%
    19:00 +6°C° 0 mm 4 mps 738 mmHg 78%
    20:00 +6°C° 0 mm 4 mps 738 mmHg 80%
    21:00 +6°C° 0 mm 4 mps 739 mmHg 82%
    22:00 +7°C° 0 mm 3 mps 739 mmHg 84%
    23:00 +5°C° 0 mm 3 mps 739 mmHg 86%
    Show more